Regional Weather Roundup
Issued by NWS

Home | Current Version | Previous Version | Text Only | Print | Product List | Glossary Off
Versions: 1 2 3 4 5 6 7 8 9 10 11 12 13 14 15 16 17 18 19 20 21 22 23 24 25 26 27 28 29 30 31 32 33 34 35 36 37 38 39 40 41 42 43 44 45 46 47 48 49 50

000
ASUS43 KIND 281709
RWRIN

WEATHER ROUNDUP FOR INDIANA
NATIONAL WEATHER SERVICE INDIANAPOLIS IN
100 PM EDT TUE JUL 28 2015

NOTE: "FAIR" INDICATES FEW OR NO CLOUDS BELOW 12,000 FEET WITH NO
SIGNIFICANT WEATHER AND/OR OBSTRUCTIONS TO VISIBILITY.

* - STATION DOES NOT REPORT WEATHER SUCH AS PRECIPITATION OR FOG.

+ - STATION NOT QUALITY CONTROLLED BY THE NATIONAL WEATHER SERVICE.
    USE DATA WITH CAUTION...ESPECIALLY DEWPOINT AND RELATIVE
    HUMIDITY OBSERVATIONS.

INZ001>003-010>013-019-020-281800-
NORTHWEST INDIANA

CITY           SKY/WX    TMP DP  RH WIND       PRES   REMARKS
GARY /AIRPORT/ MOSUNNY   86  72  62 SE6       29.99F
KNOX *+        SUNNY     84  66  54 S7        30.01R
LA PORTE +     SUNNY     86  67  51 SE6       30.02F
MICHIGAN CITY+ SUNNY     86  64  48 SE6       30.02S
MONTICELLO +   SUNNY     84  74  70 S5        30.00S
RENSSELAER +   PTSUNNY   84  75  74 SE3       30.00S

$$

LMZ046-743>745-281800-
SOUTHERN LAKE MICHIGAN

STATION/POSITION TIME  TEMP    WIND        PRES    WAVE
                       AIR SEA DIR/SP/G            HT
                 (UTC) (F)     (DEG/KT/KT) (MB)    (FT)
BURNS HARBOR     1600   84     170/  5/ 10 1016.6R
MICHIGAN CITY    1600   82     100/  9/ 11   N/A
5NW MICH CITY    1700   81 76  180/  2/  4   N/A     1

$$

INZ004-005-014>016-021>024-281800-
NORTH CENTRAL INDIANA

CITY           SKY/WX    TMP DP  RH WIND       PRES   REMARKS
ELKHART        SUNNY     86  63  45 E7        30.03S
GOSHEN         PTSUNNY   86  68  54 SE9       30.03R
LOGANSPORT +   MOSUNNY   86  64  48 E3        30.02R
PERU/GRISSOM   MOSUNNY   85  73  65 SE3       30.00S
ROCHESTER +    SUNNY     88  72  58 SE5       30.02S
SOUTH BEND     SUNNY     87  64  46 S9        30.03S
WARSAW +       SUNNY     86  66  51 SE7       30.03S

$$

INZ006>009-017-018-025>027-281800-
NORTHEAST INDIANA

CITY           SKY/WX    TMP DP  RH WIND       PRES   REMARKS
ANGOLA *+      SUNNY     86  66  51 SE8       30.05S
AUBURN +       SUNNY     86  63  45 SE5       30.05R
FORT WAYNE     MOSUNNY   85  67  54 S7        30.04R
HUNTINGTON +   SUNNY     85  68  56 SE7       30.02S

$$

INZ028-029-035-036-043>045-051>053-281800-
WEST CENTRAL INDIANA

CITY           SKY/WX    TMP DP  RH WIND       PRES   REMARKS
CRAWFORDSVL +  PTSUNNY   85  71  63 CALM        N/A
GREENCASTLE +  MOSUNNY   86  70  58 SE5       30.01S
LAFAYETTE      MOSUNNY   85  73  67 CALM      29.99S
TERRE HAUTE    MOSUNNY   88  75  65 CALM      29.99S HX  97

$$

INZ030>032-037>040-046>048-054>057-064-065-281800-
CENTRAL INDIANA

CITY           SKY/WX    TMP DP  RH WIND       PRES   REMARKS
ANDERSON       PTSUNNY   84  66  54 CALM      30.03
FISHERS *+     PTSUNNY   84  75  74 CALM      30.01
FRANKFORT +    MOSUNNY   87  75  67 CALM      30.03S HX  96
GREENWOOD *+   PTSUNNY   88  70  55 E3        30.01S
INDIANAPOLIS   PTSUNNY   87  72  60 VRB5      29.99
-EAGLE CREEK   MOSUNNY   86  71  60 SW5       30.00S
KOKOMO *+      MOSUNNY   84  72  65 S5        30.01R
MARION +       PTSUNNY   84  71  64 SE6       30.02S
MT COMFORT *+  MOSUNNY   86  75  70 CALM      30.01S HX  95
SHELBYVILLE    MOSUNNY   89  74  60 CALM      30.00S HX  98
ZIONSVILLE +   MOSUNNY   86  71  59 CALM      30.02S

$$

INZ033-034-041-042-049-050-058-059-281800-
EAST CENTRAL INDIANA

CITY           SKY/WX    TMP DP  RH WIND       PRES   REMARKS
MUNCIE         MOSUNNY   83  71  67 MISG      30.02R

$$

INZ060-061-067>069-081>083-085>088-281800-
SOUTHWEST INDIANA

CITY           SKY/WX    TMP DP  RH WIND       PRES   REMARKS
EVANSVILLE     PTSUNNY   87  75  67 CALM      29.99S HX  96
HUNTINGBURG *+ MOSUNNY   88  75  66 SW6       29.99F HX  97
WASHINGTON +   PTSUNNY   86  74  66 CALM      29.99R

$$

INZ062-063-066-070>080-084-089>092-281800-
SOUTH CENTRAL AND SOUTHEAST INDIANA

CITY           SKY/WX    TMP DP  RH WIND       PRES   REMARKS
BLOOMINGTON    PTSUNNY   86  75  69 CALM      30.00S HX  95
MADISON *+     PTSUNNY   88  72  58 NW5       30.03R
NORTH VERNON + MOSUNNY   88  72  58 CALM      30.01R
SEYMOUR +      MOSUNNY   90  73  58 SW3       29.99S HX  98

$$



USA.gov is the U.S. government's official web portal to all federal, state and local government web resources and services.